This is the latest recevied weather packets stored in our database for station/object KF0TNT. If no packets are shown the sender has not sent any weather packets the latest 10 day(s).
| Time | Temp. | Humidity | Pressure | Rain* | Wind** | Luminosity | Snow |
|---|---|---|---|---|---|---|---|
| 1777945695 | 7.78° C | 75% | 1013.6 hPa | 0.51 mm | - | 2 W/m² | - |
| 1777945392 | 7.78° C | 76% | 1013.6 hPa | 0.51 mm | - | 4 W/m² | - |
| 1777945088 | 8.33° C | 72% | 1013.2 hPa | 1.27 mm | - | 6 W/m² | - |
| 1777944786 | 8.33° C | 69% | 1013.5 hPa | 1.78 mm | - | 7 W/m² | - |
| 1777944484 | 8.33° C | 69% | 1013.6 hPa | 1.27 mm | - | 8 W/m² | - |
| 1777944181 | 9.44° C | 63% | 1013.8 hPa | 1.27 mm | - | 9 W/m² | - |
| 1777943877 | 10° C | 59% | 1013.8 hPa | 0 mm | - | 8 W/m² | - |
| 1777943574 | 10.56° C | 56% | 1013.5 hPa | 0 mm | - | 8 W/m² | - |
| 1777943270 | 10.56° C | 51% | 1013 hPa | 0 mm | - | 9 W/m² | - |
| 1777942967 | 11.11° C | 47% | 1013.2 hPa | 0 mm | - | 9 W/m² | - |
| 1777942663 | 11.11° C | 46% | 1013.2 hPa | 0 mm | - | 9 W/m² | - |
| 1777942360 | 11.11° C | 46% | 1012.9 hPa | 0 mm | - | 10 W/m² | - |
| 1777942058 | 11.11° C | 47% | 1012.8 hPa | 0 mm | - | 13 W/m² | - |
| 1777941753 | 11.67° C | 47% | 1012.7 hPa | 0 mm | - | 13 W/m² | - |
| 1777941451 | 11.67° C | 46% | 1012.5 hPa | 0 mm | - | 15 W/m² | - |
| 1777941148 | 11.67° C | 44% | 1012.3 hPa | 0 mm | - | 23 W/m² | - |
| 1777940845 | 11.67° C | 44% | 1012.2 hPa | 0 mm | - | 37 W/m² | - |
| 1777940542 | 12.22° C | 44% | 1012.3 hPa | 0 mm | - | 55 W/m² | - |
| 1777940240 | 12.22° C | 43% | 1011.8 hPa | 0 mm | - | 57 W/m² | - |
| 1777939937 | 12.22° C | 43% | 1012.3 hPa | 0 mm | - | 67 W/m² | - |
| 1777939634 | 12.78° C | 42% | 1012.2 hPa | 0 mm | - | 83 W/m² | - |
| 1777939332 | 12.78° C | 39% | 1012.3 hPa | 0 mm | - | 60 W/m² | - |
| 1777939028 | 13.89° C | 38% | 1012 hPa | 0 mm | - | 58 W/m² | - |
| 1777938724 | 14.44° C | 35% | 1011.7 hPa | 0 mm | - | 67 W/m² | - |
| 1777938422 | 14.44° C | 34% | 1011.5 hPa | 0 mm | - | 71 W/m² | - |
* Rain latest hour (hover to see other rain measurements)
** Current wind speed in m/s (hover to see current wind gust speed)